N8QQ Weather Reports


Display with metric or nautical units.
time (UTC)temp
F
wind
direction
speed
MPH
gust
MPH
rain 1hr
in
rain 24hr
in
rain mn
in
humidity
%
barometer
mb
20260504230019 76 180 4.0 12.0 0.00 0.00 0.00 47 1001.4
20260504225023 75 186 3.0 7.0 0.00 0.00 0.00 49 1001.4
20260504224026 76 146 3.0 8.0 0.00 0.00 0.00 49 1001.4
20260504223050 76 165 2.0 3.0 0.00 0.00 0.00 54 1001.5
20260504222054 76 86 0.0 4.0 0.00 0.00 0.00 55 1001.5
20260504221018 75 224 0.0 2.0 0.00 0.00 0.00 55 1001.5
20260504220020 75 146 0.0 1.0 0.00 0.00 0.00 54 1001.5
20260504215023 75 169 0.0 2.0 0.00 0.00 0.00 53 1001.9
20260504214027 76 180 1.0 3.0 0.00 0.00 0.00 52 1002.1
20260504213030 77 194 2.0 5.0 0.00 0.00 0.00 50 1002.3
20260504212015 77 185 1.0 3.0 0.00 0.00 0.00 51 1002.2
20260504211038 76 183 3.0 5.0 0.00 0.00 0.00 49 1002.3
20260504210021 77 242 3.0 5.0 0.00 0.00 0.00 49 1002.5
20260504205038 77 187 3.0 5.0 0.00 0.00 0.00 51 1002.5
20260504204035 76 207 3.0 6.0 0.00 0.00 0.00 53 1002.8
20260504203030 77 220 3.0 6.0 0.00 0.00 0.00 52 1003.0
20260504202016 75 157 2.0 5.0 0.00 0.00 0.00 55 1002.9
20260504201024 75 163 3.0 6.0 0.00 0.00 0.00 54 1003.1
20260504200022 0 180 1.0 1.0 0.00 0.00 0.00 1003.2
20260504195025 76 184 2.0 4.0 0.00 0.00 0.00 54 1003.3
20260504194028 76 197 2.0 5.0 0.00 0.00 0.00 56 1003.5
20260504193052 75 161 3.0 6.0 0.00 0.00 0.00 56 1004.0
20260504192037 74 213 4.0 8.0 0.00 0.00 0.00 57 1003.9
20260504191020 73 242 0.0 3.0 0.00 0.00 0.00 61 1004.0
20260504190023 73 194 3.0 5.0 0.00 0.00 0.00 61 1004.2
20260504185026 70 210 2.0 6.0 0.00 0.00 0.00 63 1004.3
20260504184029 70 174 3.0 5.0 0.00 0.00 0.00 65 1004.3
20260504183033 70 96 1.0 3.0 0.00 0.00 0.00 64 1004.2
20260504182038 71 216 2.0 4.0 0.00 0.00 0.00 62 1003.9
20260504181021 70 177 2.0 5.0 0.00 0.00 0.00 62 1003.8
20260504180024 71 124 3.0 5.0 0.00 0.00 0.00 60 1003.8
20260504175047 72 115 1.0 3.0 0.00 0.00 0.00 60 1003.7
20260504174045 73 129 2.0 6.0 0.00 0.00 0.00 58 1003.5
20260504173016 73 104 2.0 4.0 0.00 0.00 0.00 59 1003.7
20260504172019 72 342 2.0 3.0 0.00 0.00 0.00 61 1003.6
20260504171037 71 224 2.0 4.0 0.00 0.00 0.00 62 1003.5
20260504151024 67 273 1.0 4.0 0.00 0.00 0.00 65 1004.4
20260504141024 65 181 1.0 4.0 0.00 0.00 0.00 63 1004.5
20260504081028 51 112 0.0 2.0 0.00 0.00 0.00 69 1005.9
20260504045031 51 270 0.0 1.0 0.00 0.00 0.00 68 1007.6
20260504044015 51 292 0.0 2.0 0.00 0.00 0.00 68 1007.6
20260504043019 50 180 0.0 2.0 0.00 0.00 0.00 68 1007.5
20260504042022 50 141 0.0 2.0 0.00 0.00 0.00 69 1007.7
20260504041045 50 258 0.0 2.0 0.00 0.00 0.00 70 1007.8
20260504040028 50 45 0.0 2.0 0.00 0.00 0.00 69 1008.0
20260504035025 50 95 0.0 3.0 0.00 0.00 0.00 70 1008.2
20260504034016 50 175 0.0 2.0 0.00 0.00 0.00 70 1008.1
20260504033040 50 180 0.0 1.0 0.00 0.00 0.00 70 1008.2
20260504032036 50 0.0 0.0 0.00 0.00 0.00 69 1008.2
20260504031025 51 0.0 0.0 0.00 0.00 0.00 69 1008.2
20260504030029 51 0.0 0.0 0.00 0.00 0.00 68 1008.2
20260504025032 51 0.0 0.0 0.00 0.00 0.00 68 1008.3
20260504024037 52 0.0 1.0 0.00 0.00 0.00 68 1008.4
20260504023020 52 0.0 0.0 0.00 0.00 0.00 68 1008.5
20260504022023 52 0.0 0.0 0.00 0.00 0.00 65 1008.4
20260504021026 53 0.0 0.0 0.00 0.00 0.00 65 1008.3
20260504020029 54 63 0.0 2.0 0.00 0.00 0.00 65 1008.2
20260504015033 54 112 0.0 1.0 0.00 0.00 0.00 66 1008.2
20260504014017 54 45 0.0 1.0 0.00 0.00 0.00 65 1007.9
20260504013021 55 0.0 0.0 0.00 0.00 0.00 64 1007.9
20260504012024 56 40 1.0 2.0 0.00 0.00 0.00 60 1008.0
20260504011047 57 309 1.0 3.0 0.00 0.00 0.00 54 1008.0
20260504010030 57 89 1.0 3.0 0.00 0.00 0.00 50 1008.0
20260504005015 57 116 1.0 2.0 0.00 0.00 0.00 49 1007.9
20260504004018 58 151 1.0 4.0 0.00 0.00 0.00 48 1008.1
20260504003021 58 244 0.0 2.0 0.00 0.00 0.00 47 1008.3
20260504002026 58 200 1.0 2.0 0.00 0.00 0.00 48 1008.1
20260504001022 58 134 1.0 3.0 0.00 0.00 0.00 46 1008.0
20260504000019 59 72 1.0 4.0 0.00 0.00 0.00 46 1007.9
20260503235016 59 9 1.0 3.0 0.00 0.00 0.00 46 1008.0
20260503234019 60 161 0.0 3.0 0.00 0.00 0.00 47 1008.0
20260503233023 60 125 1.0 3.0 0.00 0.00 0.00 45 1008.1
20260503232025 60 149 1.0 4.0 0.00 0.00 0.00 45 1008.5
20260503231023 61 124 1.0 2.0 0.00 0.00 0.00 45 1008.7